Terug naar catalogus

DELTA 1 DEB

ActiefLEO
NORAD 5971·DEBRIS·🇺🇸 United States

Gelanceerd Jan 26, 1967 vanaf Vandenberg Space Force Base

Loading…

Volgende Passages (komende 24 uur)

TLE

VersSource: Space-Track

Epoch: Sep 14, 2026, 07:28 UTC

1 05971U 67006E   26257.31133428 -.00000026  00000-0  10513-3 0  9990
2 05971 101.9573 205.5734 0112846 153.5185   4.5046 12.73488539772438

Volg DELTA 1 DEB in realtime met AllMySat

Download on the App Store